Location: Newark
(54.2500°N, 9.1833°E)
Time: 22:44:09
(UTC+00:00)

Vanguard 2 Rocket - Pass Details

Date: 13 December 2019
Orbit: 554 x 3326 km, 32.9° (Epoch: 21 January)

Event Time Altitude Azimuth Distance (km) Brightness Sun altitude
Rises 19:31:08 0° 251° (WSW) 5,973 11.8 -38.0°
Reaches altitude 10° 19:37:17 10° 236° (SW) 4,359 10.7 -38.8°
Maximum altitude 19:43:37 17° 201° (SSW) 3,126 9.6 -39.7°
Enters shadow 19:44:00 17° 198° (SSW) 3,087 9.5 -39.8°
